User: anonymous   Login
Location: Asheville, NC
(35.6000°N, 82.5500°W)
Time: 20:13:04
(UTC-04:00)
Language:

UKube-1 - Orbit

View from above orbital plane
View from above orbital plane
View from above satellite
View from above satellite

Ground track
Ground track

The orbit data is extracted from the following two-line orbital elements,

1 40074U 14037F   18115.55178314  .00000420  00000-0  57818-4 0  9999
2 40074  98.3793 250.1759 0005812 119.2699 240.9093 14.83770093205497
Epoch (UTC): 25 April 2018 13:14:34
Eccentricity: 0.0005812
inclination: 98.3793°
perigee height: 613 km
apogee height: 621 km
right ascension of ascending node: 250.1759°
argument of perigee: 119.2699°
revolutions per day: 14.83770093
mean anomaly at epoch: 240.9093°
orbit number at epoch: 20549

The dashed part of the orbit path shows where the satellite is in the earth's shadow,  

DLR